Location: ?astrovice
(49.6513°N, 14.9287°E)
Time: 01:11:00
(UTC+00:00)

Daily predictions for brighter satellites

Satellite Brightness Start Highest point End
(mag) Time Altitude Azimuth Time Altitude Azimuth Time Altitude Azimuth
Cosmos 1733 3.4 00:00:47 10° N 00:04:32 61° ENE 00:04:48 58° ESE
BREEZE-M R/B 3.1 00:04:50 63° S 00:04:50 63° S 00:10:53 10° ESE
SeaSat 1 3.5 00:01:24 10° NNE 00:05:57 38° NW 00:08:06 26° W
DNEPR-1 R/B 4.2 00:04:12 39° WSW 00:06:13 68° NW 00:11:05 10° NE
Sich 1 Rocket 3.5 00:01:52 10° N 00:06:28 86° W 00:07:12 63° S
Cosmos 1066 Rocket 4.2 00:06:18 45° S 00:08:10 82° E 00:13:56 10° NNE
Cosmos 1378 3.3 00:08:51 62° WNW 00:08:51 62° WNW 00:12:22 10° N
USA 215 4.4 00:10:10 24° WSW 00:10:10 24° WSW 00:14:19 10° WNW
ATLAS 2AS CENTAUR R/B 3.7 00:05:25 10° WNW 00:11:18 27° WSW 00:11:46 27° WSW
Cosmos 1943 Rocket 2.9 00:09:25 30° WSW 00:11:48 47° NW 00:17:14 10° NNE
Cosmos 1356 Rocket 3.5 00:07:39 10° NNW 00:11:51 59° W 00:11:59 59° WSW
Cosmos 1607 4.2 00:11:32 40° S 00:13:44 61° ESE 00:20:08 10° NE
Cosmos 2298 Rocket 3.9 00:13:51 50° SSW 00:15:18 90° NNE 00:20:38 10° NNE
Cosmos 1461 3.1 00:15:16 58° SW 00:16:11 88° WNW 00:20:51 10° NE
EO 1 Del DPAF 4.4 00:15:21 10° N 00:18:38 29° WNW 00:18:53 29° WNW
Okean 1 Rocket 4.3 00:16:32 10° N 00:20:41 38° ENE 00:23:12 20° SE
Cosmos 44 Rocket 4.1 00:18:36 10° NW 00:23:47 57° NE 00:28:51 10° ESE
Cosmos 1833 4.2 00:18:32 10° NW 00:24:14 64° WSW 00:26:12 40° S
SL-16 R/B 2.6 00:21:04 23° SSE 00:25:08 77° ENE 00:31:25 10° NNW
Meteor 1-15 Rocket 4.2 00:19:41 10° NNW 00:25:18 71° W 00:27:18 41° S
Cosmos 1048 Rocket 4.3 00:20:23 10° NNW 00:25:30 47° WSW 00:26:21 43° SW
Cosmos 1726 3.9 00:24:48 10° N 00:28:06 29° ENE 00:30:09 18° ESE
Okean 1-7 4.4 00:29:25 25° W 00:30:06 26° WNW 00:33:43 10° NNW
Meteor 1-22 Rocket 4.4 00:24:39 10° N 00:30:33 77° ENE 00:34:08 26° SSE
NPP 4.2 00:28:44 10° NNE 00:34:00 51° E 00:36:34 29° SSE
Cosmos 2151 Rocket 3.5 00:31:10 10° NNW 00:35:43 80° W 00:36:58 48° S
Cosmos 1842 3.8 00:35:20 41° SE 00:36:12 51° E 00:39:58 10° NNE
Okean 2 Rocket 3.1 00:32:03 10° NNW 00:36:24 62° W 00:37:10 52° SW
Gbstr 26 Del rocket 3.8 00:31:36 10° WNW 00:37:54 52° SW 00:43:00 10° SE
Cosmos 2297 Rocket 4.1 00:33:14 10° NNW 00:38:14 30° NE 00:43:11 10° ESE
Meteor 1-29 4.4 00:36:04 10° NE 00:39:04 29° E 00:39:49 26° ESE
Cosmos 1674 Rocket 3.8 00:37:43 39° SSE 00:39:09 63° E 00:43:35 10° NNE
BREEZE-M DEB (TANK) 4.4 00:39:13 33° S 00:40:58 44° SE 00:53:49 10° ENE
Helios 1A 4.0 00:41:18 30° W 00:41:18 30° W 00:44:55 10° NNW
Cosmos 2344 4.3 00:32:58 10° NW 00:42:09 71° SW 00:54:58 10° SSE
Okean 3 4.4 00:41:55 32° W 00:42:40 34° WNW 00:46:36 10° N
AQUA 4.5 00:38:48 10° NNE 00:43:26 48° E 00:45:37 28° SSE
Cosmos 1656 Rocket 3.7 00:42:15 36° SW 00:44:26 68° WNW 00:49:58 10° NNE
Okean 2 4.2 00:42:56 31° SSE 00:44:30 46° E 00:48:31 10° NNE
Helios 1B rocket 2.5 00:41:11 10° NNE 00:45:19 71° ESE 00:46:30 45° S
ADEOS Rocket 4.3 00:38:26 10° SE 00:45:24 52° ENE 00:52:50 10° N
Cosmos 2150 Rocket 4.4 00:45:19 34° WSW 00:47:27 57° WNW 00:52:42 10° NNE
ISS -3.7 00:48:19 62° SE 00:48:19 62° SE 00:51:31 10° ENE
Cosmos 1934 Rocket 4.5 00:44:37 10° NNW 00:50:24 42° W 00:52:36 31° SW
NOSS 2-1 (C) 4.1 00:47:28 10° NW 00:52:11 85° NE 00:58:54 10° SE
RESURS DK-1 3.1 00:49:07 10° NW 00:52:35 34° W 00:52:35 34° W
Cosmos 1867 3.6 00:52:08 35° SW 00:54:31 83° NW 01:00:03 10° NE
UNK 3.7 00:53:30 37° S 00:55:14 70° WSW 00:59:51 10° NNW
CZ-2D R/B 2.1 00:50:15 10° NNE 00:55:45 89° ESE 00:58:21 32° SSW
MINOTAUR 4 R/B 3.9 00:57:01 50° S 00:57:52 82° WSW 01:01:29 10° NNW
Cosmos 1727 Rocket 4.1 00:54:29 26° S 00:58:15 79° E 01:04:37 10° NNE
NOSS 2-1 (D) 4.1 00:54:10 10° NW 00:58:54 87° SW 01:05:40 10° SE
COSMOS 2487 2.2 00:56:53 10° NNW 01:00:18 89° ENE 01:01:12 46° SSE
ATLAS CENTAUR R/B 1.0 01:02:36 51° SSW 01:03:26 76° SE 01:07:15 10° NE
Cosmos 1455 Rocket 4.5 01:03:10 10° N 01:07:12 36° ENE 01:11:13 10° SE
SL-27 R/B 4.5 01:05:23 10° NW 01:06:28 15° WNW 01:06:28 15° WNW
Cosmos 2221 Rocket 4.4 01:08:51 30° WSW 01:10:20 38° WNW 01:14:39 10° N
USA 281 4.0 01:09:03 26° SW 01:11:04 31° WSW 01:16:49 10° NW
Cosmos 1758 3.5 01:10:08 10° N 01:14:15 74° E 01:17:02 20° SSE
CZ-4C R/B 4.3 01:10:41 10° SSE 01:14:57 53° ENE 01:19:08 10° N
Cosmos 1707 2.8 01:20:58 28° S 01:22:51 73° E 01:26:42 10° NNE
Meteor 2-10 4.2 01:18:27 10° NNW 01:23:51 57° W 01:27:05 23° SSW
Cosmos 1674 4.3 01:21:51 11° SSE 01:25:03 31° E 01:28:29 10° NNE
Cosmos 1315 Rocket 3.1 01:21:12 10° N 01:25:09 65° ENE 01:28:56 11° SSE
Meteor 1-21 4.3 01:23:31 22° SSW 01:27:25 88° W 01:33:17 10° NNE
Cosmos 1125 Rocket 4.5 01:24:54 20° WSW 01:27:47 35° NW 01:32:35 10° N
CBERS-1 4.5 01:22:48 10° NNE 01:27:51 58° ESE 01:31:55 16° S
IDEFIX/ARIANE 42P 3.4 01:23:22 10° NNE 01:28:26 46° E 01:33:19 11° S
Cosmos 1400 Rocket 3.5 01:25:50 10° NNW 01:29:41 38° W 01:31:00 29° SW
Resurs 1-4 Rocket 2.5 01:24:45 10° N 01:29:48 49° WNW 01:32:45 24° SW
Cosmos 1725 Rocket 4.5 01:25:24 10° N 01:31:40 63° ENE 01:37:50 10° SSE
ADEOS II 2.1 01:27:10 10° NNE 01:32:28 89° ESE 01:36:10 20° SSW
Cosmos 2369 Rocket 3.8 01:31:09 11° W 01:35:23 25° NW 01:40:00 10° NNE
IKONOS-2 4.5 01:32:14 11° SSE 01:36:24 89° ENE 01:40:43 10° NNW
Cosmos 1975 Rocket 3.3 01:36:21 17° S 01:39:42 68° E 01:44:03 10° NNE
Cosmos 1908 4.0 01:36:46 10° N 01:40:34 52° ENE 01:44:22 10° SSE
ARGOS Delta rocket 3.8 01:40:09 10° N 01:44:34 61° WNW 01:47:33 21° SSW
CZ-3B R/B 3.7 01:28:48 15° SW 01:44:42 81° SSE 01:49:19 10° ENE
Tianhe-1 2.8 01:46:44 18° S 01:46:44 18° S 01:48:49 10° SE
Lacrosse 5 2.7 01:45:07 18° SSW 01:48:26 42° SE 01:53:13 10° ENE
Cosmos 1470 3.7 01:45:29 10° NNW 01:48:56 30° W 01:50:26 23° SW
SL-08 R/B 3.9 01:46:18 10° SSE 01:50:57 58° ENE 01:55:34 10° N
Cosmos 2016 Rocket 4.0 01:45:46 10° N 01:52:06 84° W 01:58:19 10° S
Cosmos 1459 Rocket 4.1 01:48:49 10° NNW 01:55:00 57° W 02:01:03 10° S
Cosmos 2251 Rocket 3.5 01:51:16 10° NNW 01:56:33 84° WSW 02:01:46 10° SSE
Cosmos 1943 Rocket 4.5 01:54:08 10° WNW 01:57:02 14° NNW 01:59:56 10° N
BREEZE-M DEB (TANK) 4.4 01:53:33 17° SSW 01:57:34 52° SE 02:14:14 10° ENE
MSX 4.3 01:52:09 10° NNE 01:57:52 60° ESE 02:03:34 10° S
Okean 1 Rocket 4.3 01:54:47 10° NNW 01:58:24 25° W 02:00:21 18° SW
IRS-1D 3.7 01:54:40 10° N 01:59:57 67° WNW 02:04:22 15° SSW
Cosmos 2173 Rocket 4.2 01:54:51 10° NNW 02:00:45 51° W 02:06:41 10° SSW
CZ-4B R/B 4.0 01:57:05 10° NNE 02:01:55 57° ESE 02:06:51 10° S
Cosmos 1726 3.4 02:00:09 10° NW 02:03:09 23° W 02:04:34 19° WSW
Cosmos 44 Rocket 4.2 02:00:35 10° NW 02:05:05 30° WSW 02:09:30 10° S
COSMOS 2455 2.8 02:00:23 10° NW 02:06:22 68° WSW 02:12:20 10° SSE
Cosmos 1697 Rocket 4.1 02:02:15 10° SSE 02:07:12 33° ESE 02:12:10 10° NE
Cosmos 1802 Rocket 4.1 02:01:32 10° NNW 02:07:33 56° W 02:13:30 10° SSW
SL-16 R/B 3.8 02:06:09 15° SW 02:09:23 22° W 02:14:07 10° NW
Meteor 1-28 Rocket 3.9 02:07:32 16° SSW 02:09:55 33° W 02:13:19 10° NNW
Cosmos 1980 Rocket 4.4 02:12:02 10° SSE 02:16:14 22° E 02:20:28 10° NE
Cosmos 1626 2.4 02:14:23 10° S 02:18:02 67° E 02:21:44 10° NNE
Cosmos 2227 Rocket 2.2 02:12:50 10° NNW 02:18:31 81° WSW 02:24:09 10° SSE
CZ-2C R/B 3.9 02:14:13 10° NNE 02:18:51 36° E 02:23:34 10° SSE
GP-B 3.1 02:14:34 10° N 02:19:01 70° W 02:23:25 10° SSW
Cosmos 1953 2.6 02:16:49 10° NNW 02:20:38 46° W 02:24:27 10° SSW
Cosmos 2297 Rocket 2.2 02:17:04 10° NW 02:22:40 61° WSW 02:28:13 10° S
ISS -3.3 02:21:40 10° W 02:25:02 61° N 02:28:24 10° ENE
Cosmos 2082 4.1 02:22:27 10° NNW 02:28:09 69° ENE 02:33:49 10° SE
Cosmos 2123 Rocket 4.1 02:23:34 10° SSW 02:29:40 62° WNW 02:35:49 10° N
ADEOS Rocket 3.9 02:24:14 10° SSW 02:31:00 42° W 02:38:15 10° NNW
ALOS 4.4 02:27:25 10° NE 02:31:22 26° E 02:35:17 10° SSE
IRS-P3 4.2 02:28:08 10° N 02:33:30 70° WNW 02:38:47 10° SSW
Cosmos 1544 Rocket 3.8 02:29:30 10° NNW 02:33:44 49° W 02:37:58 10° SSW
CZ-2D R/B 3.9 02:31:28 10° NNW 02:35:06 18° NW 02:38:41 10° W
Cosmos 371 Rocket 3.3 02:30:20 10° SSW 02:35:13 82° WNW 02:40:08 10° NNE
Cosmos 1025 Rocket 3.1 02:31:52 10° SSW 02:36:08 63° WNW 02:40:28 10° N
Cosmos 332 Rocket 4.1 02:31:51 10° SSW 02:36:43 69° ESE 02:41:35 10° NNE
ATLAS CENTAUR R/B 3.1 02:39:56 10° W 02:42:46 20° NNW 02:45:42 10° NNE
ARIANE 5 R/B 2.6 02:37:53 10° N 02:43:04 71° WNW 02:48:10 10° SSW
Lacrosse 4 Rocket 3.5 02:39:53 10° SSE 02:43:38 27° ESE 02:47:22 10° NE
Cosmos 1455 Rocket 4.2 02:41:19 10° NNW 02:44:52 25° W 02:48:23 10° SW
IRAS Rocket 4.4 02:41:34 10° SSE 02:47:08 82° ENE 02:52:47 10° NNW
CZ-2D R/B 3.6 02:42:50 10° NNE 02:47:11 79° WNW 02:51:34 10° SSW
Cosmos 1190 Rocket 4.0 02:47:32 10° NNW 02:52:47 89° WSW 02:58:00 10° SSE
Cosmos 1536 Rocket 3.6 02:48:26 10° SSW 02:52:47 73° W 02:57:14 10° N
Cosmos 2219 3.6 02:48:15 10° NW 02:53:33 41° WSW 02:58:51 10° S
